Theta_e
319 318 320 320 320 319 319 319 320 319 319 319 319 320 320 320 321 321 321 322 323 324 324 322 321 320 321 321 324 325 327 328 329 333 353 357 358 356 355 354 350 349 349 350
320 319 319 319 319 319 318 318 320 319 319 319 319 320 320 321 321 322 324 323 323 323 323 325 323 323 324 323 323 328 329 330 331 335 342 353 357 357 354 355 353 351 349 348
320 321 319 318 319 319 319 319 318 318 319 320 320 321 322 322 323 324 323 323 322 324 325 326 326 324 326 326 324 325 326 328 331 334 331 346 350 353 353 353 352 351 352 350
320 319 319 318 318 318 318 318 319 320 320 320 321 323 324 323 324 324 324 324 322 324 324 324 326 326 324 323 323 324 325 327 329 328 332 334 345 352 352 351 353 353 351 352
319 319 319 318 318 319 319 320 320 320 322 322 322 323 324 324 324 324 323 322 322 322 323 324 324 323 322 322 323 323 323 322 324 328 330 332 336 344 349 352 351 351 351 351
319 319 319 319 319 320 320 320 321 322 322 324 323 324 324 324 323 322 322 321 321 321 321 321 322 322 323 322 322 323 323 324 324 324 329 332 338 338 347 348 350 350 350 350
318 318 319 319 319 319 320 322 324 327 326 325 325 326 325 322 321 321 321 320 320 321 321 322 322 322 322 322 322 322 323 325 325 326 327 331 332 338 344 346 348 348 348 350
322 323 322 322 321 321 322 323 325 330 329 326 324 327 324 320 320 321 320 321 321 320 319 320 321 321 319 320 321 321 322 323 324 324 327 329 331 336 340 346 346 346 347 347
322 321 320 321 321 320 321 321 322 325 324 325 323 322 320 320 320 321 321 320 319 319 318 319 319 320 319 319 320 320 320 321 322 325 325 328 329 331 338 341 345 344 346 346
321 323 322 322 321 320 320 320 324 322 327 326 322 321 320 321 320 319 318 317 318 318 319 319 320 320 319 319 319 319 320 320 321 321 324 324 327 331 333 338 343 343 344 342
321 323 324 322 323 321 319 320 320 320 327 327 323 321 319 319 318 318 317 317 317 317 318 318 319 318 318 318 318 318 318 318 318 319 321 323 324 326 330 333 338 341 336 326
321 323 325 323 322 319 319 319 323 327 323 322 324 322 321 319 317 317 317 317 317 318 318 318 318 318 318 317 317 317 317 317 316 317 317 321 321 323 326 328 330 332 326 323
320 323 326 324 322 320 321 318 318 320 323 325 327 322 318 318 319 317 317 316 316 318 318 318 319 319 318 317 316 316 315 315 315 315 315 317 320 322 323 327 329 328 324 323
318 322 326 328 326 324 323 321 318 318 321 318 318 319 319 321 318 317 318 318 318 319 319 318 318 317 317 316 316 316 316 315 315 316 316 316 317 319 321 322 322 328 320 328
318 321 320 320 321 322 322 323 320 319 317 318 317 317 317 317 317 318 319 318 317 316 316 316 316 316 315 314 313 312 312 312 312 313 314 314 315 317 317 320 321 322 325 329
319 320 320 322 320 320 320 320 320 317 316 315 315 316 316 317 317 318 317 316 315 316 314 314 314 314 313 311 310 309 308 307 308 309 309 311 312 313 314 317 319 321 322 327
321 321 321 323 319 318 320 318 318 316 316 315 315 316 317 319 318 317 317 316 315 314 313 313 312 312 310 309 308 307 306 306 306 305 306 308 309 311 311 314 317 321 320 323
320 320 322 322 320 326 319 316 317 319 318 317 317 318 318 317 315 315 314 315 314 313 312 311 310 309 307 305 305 305 304 304 304 304 305 306 306 310 310 311 314 318 321 321
317 319 323 322 322 319 316 319 320 320 319 321 320 318 316 315 314 314 315 313 312 312 311 309 307 305 304 304 303 303 304 303 302 304 304 304 306 306 306 309 312 316 319 319
317 317 321 318 325 320 322 319 317 317 318 320 317 316 315 315 316 315 313 312 312 311 308 306 303 302 301 301 300 301 301 301 300 301 303 304 304 304 306 308 310 310 316 318
320 321 323 321 318 316 321 320 317 320 322 318 316 315 315 314 314 314 313 312 309 308 305 303 302 300 299 299 298 299 299 299 299 299 299 300 302 303 304 304 306 309 312 317
323 321 322 319 319 321 318 318 320 320 318 316 315 314 313 312 312 312 311 311 309 306 303 301 300 298 298 298 298 299 299 299 299 299 299 299 299 300 303 305 305 306 308 313
322 322 322 321 322 320 319 319 317 316 316 315 313 312 312 311 311 311 310 309 306 304 301 299 298 297 298 298 298 298 299 299 300 300 300 299 299 299 300 302 305 305 305 309
319 319 322 320 319 319 320 317 315 314 314 313 311 311 310 310 310 309 308 307 303 301 299 298 297 297 297 296 297 298 299 301 302 303 302 301 300 300 299 300 302 303 304 308
316 316 318 317 316 317 317 316 315 313 312 310 310 310 309 310 309 308 307 304 301 299 298 296 296 296 296 296 297 299 301 303 304 304 302 302 301 300 299 300 301 302 304 307
313 314 317 319 317 316 315 315 313 312 310 310 309 308 309 309 307 306 305 301 299 298 296 295 295 295 295 296 297 298 301 304 305 305 303 301 300 300 300 300 301 301 303 306
Wind_Speed
14 11 13 16 17 19 18 12 12 7 4 5 6 9 12 14 14 13 12 11 11 9 8 12 13 13 10 8 11 11 10 13 20 16 24 25 25 28 30 32 39 35 34 37
12 13 16 14 13 7 9 9 13 12 11 9 10 13 14 15 15 14 13 11 10 8 8 6 11 5 5 13 18 9 9 10 12 17 19 30 27 29 31 32 31 35 39 41
14 12 11 8 5 7 11 12 13 13 12 6 8 16 19 19 20 18 13 8 5 9 8 5 5 11 14 18 20 18 19 16 11 12 20 23 28 27 30 33 34 38 38 44
13 14 5 8 10 12 11 12 13 9 10 10 12 14 16 14 13 14 12 9 10 13 13 11 11 13 16 15 17 15 17 18 18 20 19 25 26 26 30 33 33 37 43 37
14 13 14 11 12 11 11 9 9 8 12 14 16 12 14 15 16 2 14 13 12 9 10 12 12 13 15 12 12 14 15 21 25 26 26 25 28 29 33 31 35 36 35 41
17 17 7 11 11 4 7 9 12 15 14 14 20 18 15 7 10 9 10 8 8 9 8 9 11 13 12 15 18 19 17 17 19 26 31 32 30 32 28 32 31 34 37 38
14 16 14 12 13 11 12 12 10 12 11 12 9 6 8 6 10 7 6 5 5 7 8 9 12 13 15 16 12 18 21 20 15 19 29 34 34 32 32 33 34 35 36 38
12 10 2 13 6 6 10 12 7 9 10 13 17 7 7 1 8 9 5 7 6 5 7 7 10 9 13 17 15 17 19 21 23 23 29 31 33 30 30 32 35 38 37 39
9 13 3 3 6 4 7 10 11 9 12 11 12 18 13 11 10 11 7 9 8 8 7 10 12 9 13 14 14 14 19 18 21 23 30 29 31 30 28 31 35 38 39 38
7 11 14 13 5 11 13 10 8 6 4 8 9 7 5 9 5 2 8 10 7 8 11 9 7 10 11 13 17 19 16 16 20 21 28 27 31 30 31 30 33 32 36 29
9 8 12 9 7 11 8 9 11 11 7 4 5 7 8 7 5 7 10 11 11 11 10 10 10 14 14 16 17 19 16 15 18 24 24 25 29 30 28 23 30 29 16 3
2 4 11 17 15 11 11 11 10 6 10 10 10 14 16 5 6 10 13 12 12 10 10 12 13 14 15 18 19 18 18 15 19 22 25 23 24 29 31 29 23 19 11 8
2 5 9 13 12 13 10 13 12 10 10 15 12 9 14 16 14 12 12 14 13 12 13 12 13 13 16 19 20 22 23 22 21 22 26 27 20 23 28 28 24 19 18 20
3 8 11 10 3 8 9 15 15 15 12 14 16 19 15 15 12 14 13 12 14 15 16 15 14 16 21 23 26 28 28 27 28 27 22 24 26 22 24 28 30 20 15 24
7 12 15 17 20 12 15 19 20 18 17 17 16 18 17 16 14 12 13 15 17 19 20 19 18 16 19 24 27 29 31 32 34 33 31 29 32 30 25 26 27 28 25 31
8 11 12 15 19 19 21 19 22 20 19 18 19 19 18 11 12 13 14 18 20 20 20 21 20 20 19 25 29 34 38 39 37 34 34 35 33 33 34 26 27 24 28 27
3 5 6 13 16 15 16 19 21 17 15 16 15 13 13 13 16 17 17 18 19 19 21 20 20 18 24 31 34 32 35 35 34 36 39 37 37 36 34 36 26 27 26 22
7 4 4 6 9 6 11 7 5 7 9 7 9 12 12 16 18 18 19 16 19 21 21 19 18 24 30 36 35 36 34 34 33 34 35 31 36 34 33 35 31 27 25 16
12 8 3 3 6 13 14 3 2 5 7 16 12 13 16 18 19 17 18 21 20 20 19 18 27 34 35 33 34 34 32 30 32 32 33 36 30 29 36 35 29 29 29 17
12 14 6 3 4 3 7 5 4 5 7 10 11 13 16 17 13 13 20 20 20 16 21 28 36 34 32 32 32 31 30 29 29 30 30 29 32 34 32 32 27 25 25 24
10 8 8 9 6 9 8 6 5 6 4 9 10 12 14 12 12 17 19 19 21 18 30 36 32 29 30 31 30 29 29 28 32 31 31 30 33 35 32 35 27 22 21 25
9 7 7 9 9 12 5 5 3 5 7 9 12 13 14 16 18 19 20 20 17 20 31 31 28 29 31 30 27 26 25 31 32 31 29 29 29 30 25 29 29 20 18 20
5 8 1 2 2 4 4 6 5 4 7 11 12 13 14 17 19 19 19 18 16 22 26 28 27 30 29 27 26 24 29 30 30 28 27 26 26 27 27 28 21 17 17 19
6 10 3 5 5 3 12 3 5 4 8 10 11 13 14 16 18 18 16 15 18 22 22 28 27 23 26 28 29 27 30 30 28 26 23 23 24 24 25 25 24 22 22 15
3 6 7 7 6 3 9 7 8 7 8 10 12 14 15 16 18 15 16 17 17 22 27 26 24 24 26 29 30 29 30 31 23 22 23 23 20 20 22 22 23 19 23 22
5 4 3 4 7 4 4 7 6 8 10 11 13 15 15 16 14 16 16 19 21 23 28 25 25 26 28 28 28 30 29 25 24 16 14 17 17 14 16 16 15 22 28 31
Wind_Direction
197 226 217 222 217 246 281 305 308 201 176 219 243 273 284 283 282 275 272 263 256 253 254 225 227 236 236 242 249 230 240 274 291 281 236 224 219 223 226 227 222 215 213 204
238 226 248 236 256 252 282 283 278 290 298 284 265 272 275 271 268 264 268 271 271 283 284 312 328 305 274 242 243 230 220 247 264 281 268 236 228 226 229 232 228 224 220 211
241 231 202 281 279 260 255 257 271 269 276 262 294 272 256 248 240 240 236 229 237 235 243 264 302 337 15 22 11 0 352 348 331 293 284 269 248 245 237 236 235 226 222 212
249 260 225 259 247 237 246 238 240 268 279 266 267 292 296 290 269 251 235 226 50 28 8 4 16 4 1 351 345 344 341 341 328 310 293 275 258 244 238 235 232 228 222 219
256 230 254 208 246 239 249 315 329 294 277 279 273 268 267 254 241 164 61 46 27 19 1 360 347 339 327 327 338 330 339 334 332 322 305 270 274 257 250 243 236 233 230 225
282 297 265 258 237 304 335 309 285 271 259 258 259 251 262 274 55 69 58 33 16 6 356 335 318 307 319 350 330 323 335 318 321 316 309 291 263 265 257 246 239 235 232 225
256 272 267 237 248 252 240 230 262 264 237 246 264 349 281 346 99 79 51 9 23 16 357 335 326 325 328 317 341 330 319 312 315 310 304 297 287 253 258 247 242 236 229 226
273 252 342 360 301 297 304 297 273 265 287 301 317 225 286 153 97 108 51 36 357 304 289 297 292 296 302 299 315 318 311 313 319 314 306 298 291 284 253 252 246 245 237 233
277 256 216 212 293 330 278 310 359 321 283 275 277 284 260 135 117 103 159 216 231 258 276 276 265 291 296 299 304 294 296 305 304 308 307 304 296 289 273 256 248 248 249 248
283 286 281 274 233 269 261 269 278 257 271 262 258 284 80 81 87 359 320 323 308 284 277 310 302 289 296 298 283 284 279 289 306 307 302 308 311 307 301 263 254 249 250 266
285 273 270 299 227 232 255 233 252 257 200 231 277 265 93 10 12 300 296 295 279 281 309 317 314 301 298 294 297 300 295 298 306 308 302 313 314 317 315 306 272 269 253 251
321 330 254 254 237 252 277 249 225 246 244 241 239 257 282 348 274 255 250 266 307 330 312 304 293 298 299 298 292 298 302 306 302 300 303 305 310 317 320 311 315 264 217 250
265 232 265 258 253 227 239 241 252 263 248 238 253 267 288 283 268 287 296 305 307 311 306 315 320 315 314 314 318 314 306 296 291 297 304 302 302 307 317 318 300 272 239 223
98 259 247 267 347 339 244 254 232 233 232 248 248 261 266 268 302 313 320 341 341 338 330 330 333 333 331 336 347 346 338 336 335 319 297 298 305 299 301 309 309 282 219 191
224 256 266 274 288 236 249 275 272 254 254 251 262 271 291 304 316 347 355 349 334 331 327 325 327 337 340 337 335 331 329 327 325 321 317 313 315 307 290 294 302 294 305 207
309 256 273 273 270 267 268 249 258 267 267 276 281 284 280 349 328 6 341 334 328 324 331 338 331 332 331 324 317 312 308 305 305 304 306 306 300 299 308 283 289 294 285 292
236 245 267 265 266 262 260 255 259 264 292 257 270 303 349 2 356 347 338 329 334 341 331 324 325 319 311 308 304 298 298 298 295 293 289 283 290 288 292 298 261 278 274 282
225 248 247 275 291 244 241 277 316 287 291 312 309 341 7 353 337 332 321 5 342 328 321 321 313 309 309 302 296 293 290 288 282 280 274 273 277 275 278 287 287 248 270 302
217 226 271 253 268 281 288 258 67 353 317 38 15 355 346 337 332 312 7 347 330 321 318 324 325 314 307 302 300 294 288 288 287 279 273 268 261 269 280 275 275 272 249 256
191 206 222 247 267 265 30 156 65 323 255 24 359 348 339 336 320 321 338 323 319 323 343 331 319 311 307 306 303 297 291 286 284 287 277 270 265 256 256 268 271 268 274 248
191 199 233 230 244 269 134 226 306 251 29 354 347 339 338 330 321 317 311 332 322 348 336 323 312 309 308 307 301 294 292 286 284 282 280 276 271 258 253 256 269 287 276 259
196 199 209 229 238 250 51 291 328 27 351 343 350 340 333 327 322 321 334 321 340 336 328 322 315 311 308 305 301 295 291 291 286 281 274 271 268 271 270 246 245 264 278 277
192 221 255 307 282 347 313 353 37 26 333 352 337 336 336 329 328 334 328 327 341 330 320 320 313 309 310 312 307 298 293 293 288 282 275 266 263 255 255 259 248 233 264 258
211 182 206 200 218 201 260 88 44 4 355 341 335 339 337 332 336 331 323 342 333 324 322 320 316 314 314 316 310 302 297 291 285 282 274 271 261 244 242 242 248 224 223 251
180 236 224 251 246 8 66 19 339 352 355 340 344 345 340 343 336 336 341 335 326 323 325 324 319 316 314 314 311 312 304 300 293 278 271 272 251 245 228 231 230 234 221 221
322 321 326 295 55 352 52 217 282 18 343 354 351 340 347 352 348 356 341 331 327 329 326 325 322 320 319 319 322 316 314 319 314 307 312 310 279 242 205 216 223 234 223 211